This is the latest recevied weather packets stored in our database for station/object KB1FPD. If no packets are shown the sender has not sent any weather packets the latest 1 day(s).
| Time | Temp. | Humidity | Pressure | Rain* | Wind** | Luminosity | Snow |
|---|---|---|---|---|---|---|---|
| 1778006150 | 25° C | 50% | 1010.1 hPa | 0 mm | 2.68 m/s, 196° | - | - |
| 1778005849 | 25° C | 50% | 1010.3 hPa | 0 mm | 3.58 m/s, 163° | - | - |
| 1778005548 | 25° C | 46% | 1010.5 hPa | 0 mm | 4.02 m/s, 166° | - | - |
| 1778005252 | 25° C | 48% | 1010.6 hPa | 0 mm | 4.02 m/s, 182° | - | - |
| 1778004949 | 25.56° C | 47% | 1010.5 hPa | 0 mm | 3.58 m/s, 182° | - | - |
| 1778004648 | 25.56° C | 46% | 1010.7 hPa | 0 mm | 2.68 m/s, 169° | - | - |
| 1778004349 | 25.56° C | 51% | 1010.6 hPa | 0 mm | 2.68 m/s, 231° | - | - |
| 1778004050 | 25.56° C | 50% | 1010.7 hPa | 0 mm | 3.13 m/s, 224° | - | - |
| 1778003748 | 25.56° C | 53% | 1010.7 hPa | 0 mm | 3.13 m/s, 245° | - | - |
| 1778003449 | 25.56° C | 48% | 1010.8 hPa | 0 mm | 3.13 m/s, 242° | - | - |
| 1778003149 | 25° C | 48% | 1010.8 hPa | 0 mm | 3.13 m/s, 214° | - | - |
| 1778002849 | 25° C | 47% | 1010.7 hPa | 0 mm | 3.13 m/s, 222° | - | - |
| 1778002549 | 25° C | 50% | 1010.7 hPa | 0 mm | 3.58 m/s, 220° | - | - |
| 1778002249 | 25° C | 50% | 1010.9 hPa | 0 mm | 3.58 m/s, 260° | - | - |
| 1778001949 | 25° C | 46% | 1010.9 hPa | 0 mm | 3.58 m/s, 211° | - | - |
| 1778001648 | 24.44° C | 52% | 1010.8 hPa | 0 mm | 3.58 m/s, 257° | - | - |
| 1778001347 | 25° C | 50% | 1010.9 hPa | 0 mm | 3.58 m/s, 255° | - | - |
| 1778001047 | 25° C | 53% | 1010.9 hPa | 0 mm | 3.13 m/s, 240° | - | - |
| 1778000746 | 25° C | 51% | 1011 hPa | 0 mm | 2.68 m/s, 208° | - | - |
| 1778000445 | 24.44° C | 51% | 1010.9 hPa | 0 mm | 2.68 m/s, 184° | - | - |
| 1778000150 | 24.44° C | 52% | 1011 hPa | 0 mm | 3.13 m/s, 217° | - | - |
| 1777999849 | 24.44° C | 53% | 1011.1 hPa | 0 mm | 3.58 m/s, 216° | - | - |
| 1777999546 | 24.44° C | 52% | 1011.2 hPa | 0 mm | 3.58 m/s, 192° | - | - |
| 1777999249 | 24.44° C | 51% | 1011.3 hPa | 0 mm | 3.58 m/s, 203° | - | - |
| 1777998944 | 24.44° C | 49% | 1011.4 hPa | 0 mm | 4.02 m/s, 205° | - | - |
* Rain latest hour (hover to see other rain measurements)
** Current wind speed in m/s (hover to see current wind gust speed)